Location: Ajisawe
(8.4333°N, 4.3833°E)
Time: 21:08:51
(UTC+00:00)

Vanguard 2 Rocket - Pass Details

Date: 21 April 2021
Orbit: 554 x 3326 km, 32.9° (Epoch: 16 May)

Event Time Altitude Azimuth Distance (km) Brightness Sun altitude
Rises 13:30:18 0° 278° (W) 6,301 11.6 62.9°
Reaches altitude 10° 13:34:48 10° 287° (WNW) 5,612 11.5 61.8°
Maximum altitude 13:50:51 35° 347° (NNW) 4,487 11.1 57.9°
Drops below altitude 10° 14:08:11 10° 48° (NE) 5,990 10.9 53.7°
Sets 14:13:17 0° 57° (ENE) 6,747 11.1 52.4°
